Terug naar catalogus

HULIANWANG DIGUI-113

ActiefCommunicatieLEO
NORAD 66923·PAYLOAD·🇨🇳 China

Gelanceerd Dec 6, 2025 vanaf Wenchang Space Launch Site

Loading…

Volgende Passages (komende 24 uur)

TLE

VersSource: Space-Track

Epoch: Sep 14, 2026, 04:43 UTC

1 66923U 25285J   26257.19695604 -.00000088  00000-0  76882-4 0  9992
2 66923  50.0088 186.5056 0000187 236.3497 123.7357 13.29327249 37909

Volg HULIANWANG DIGUI-113 in realtime met AllMySat

Download on the App Store